| time (UTC) | temp F | wind direction | speed MPH | gust MPH | rain 1hr in | rain 24hr in | rain mn in | humidity % | barometer mb |
| 20260503003513 | 83 | 124 | 4.0 | 11.0 | 0.00 | 0.00 | 0.00 | 87 | 1014.2 |
| 20260503003033 | 83 | 145 | 5.0 | 11.0 | 0.00 | 0.00 | 0.00 | 87 | 1014.1 |
| 20260503002510 | 83 | 130 | 6.0 | 12.0 | 0.00 | 0.00 | 0.00 | 87 | 1014.0 |
| 20260503002011 | 83 | 119 | 5.0 | 12.0 | 0.00 | 0.00 | 0.00 | 87 | 1013.9 |
| 20260503001528 | 84 | 165 | 6.0 | 12.0 | 0.00 | 0.00 | 0.00 | 87 | 1014.0 |
| 20260503001012 | 84 | 88 | 5.0 | 12.0 | 0.00 | 0.00 | 0.00 | 87 | 1014.0 |
| 20260503000512 | 84 | 129 | 5.0 | 13.0 | 0.00 | 0.00 | 0.00 | 86 | 1014.0 |
| 20260503000042 | 84 | 146 | 6.0 | 13.0 | 0.00 | 0.00 | 0.00 | 85 | 1013.9 |
| 20260502235510 | 84 | 126 | 5.0 | 13.0 | 0.00 | 0.00 | 0.00 | 85 | 1013.9 |
| 20260502235011 | 84 | 136 | 6.0 | 14.0 | 0.00 | 0.00 | 0.00 | 85 | 1013.8 |
| 20260502234548 | 84 | 134 | 6.0 | 14.0 | 0.00 | 0.00 | 0.00 | 84 | 1013.7 |
| 20260502234012 | 84 | 135 | 5.0 | 14.0 | 0.00 | 0.00 | 0.00 | 84 | 1013.9 |
| 20260502233512 | 85 | 158 | 7.0 | 14.0 | 0.00 | 0.00 | 0.00 | 83 | 1013.8 |
| 20260502233031 | 85 | 147 | 7.0 | 13.0 | 0.00 | 0.00 | 0.00 | 83 | 1013.9 |
| 20260502232511 | 85 | 130 | 7.0 | 13.0 | 0.00 | 0.00 | 0.00 | 83 | 1013.7 |
| 20260502232011 | 85 | 120 | 8.0 | 13.0 | 0.00 | 0.00 | 0.00 | 82 | 1013.7 |
| 20260502231532 | 86 | 157 | 6.0 | 13.0 | 0.00 | 0.00 | 0.00 | 82 | 1013.6 |
| 20260502231013 | 86 | 129 | 5.0 | 13.0 | 0.00 | 0.00 | 0.00 | 82 | 1013.4 |
| 20260502230511 | 86 | 155 | 5.0 | 13.0 | 0.00 | 0.00 | 0.00 | 82 | 1013.4 |
| 20260502230029 | 86 | 136 | 7.0 | 13.0 | 0.00 | 0.00 | 0.00 | 82 | 1013.3 |
| 20260502225511 | 86 | 146 | 5.0 | 12.0 | 0.00 | 0.00 | 0.00 | 82 | 1013.4 |
| 20260502225009 | 86 | 145 | 4.0 | 12.0 | 0.00 | 0.00 | 0.00 | 82 | 1013.3 |
| 20260502224532 | 86 | 126 | 7.0 | 16.0 | 0.00 | 0.00 | 0.00 | 82 | 1013.3 |
| 20260502224017 | 86 | 135 | 8.0 | 16.0 | 0.00 | 0.00 | 0.00 | 82 | 1013.2 |
| 20260502223512 | 87 | 173 | 7.0 | 14.0 | 0.00 | 0.00 | 0.00 | 81 | 1013.1 |
| 20260502223039 | 87 | 161 | 4.0 | 11.0 | 0.00 | 0.00 | 0.00 | 82 | 1013.2 |
| 20260502222511 | 87 | 122 | 5.0 | 12.0 | 0.00 | 0.00 | 0.00 | 81 | 1013.1 |
| 20260502222010 | 88 | 181 | 5.0 | 12.0 | 0.00 | 0.00 | 0.00 | 80 | 1013.0 |
| 20260502221530 | 88 | 146 | 4.0 | 12.0 | 0.00 | 0.00 | 0.00 | 80 | 1012.9 |
| 20260502221015 | 88 | 126 | 5.0 | 14.0 | 0.00 | 0.00 | 0.00 | 80 | 1012.9 |
| 20260502220511 | 88 | 121 | 5.0 | 14.0 | 0.00 | 0.00 | 0.00 | 80 | 1012.9 |
| 20260502220031 | 88 | 142 | 5.0 | 12.0 | 0.00 | 0.00 | 0.00 | 80 | 1012.9 |
| 20260502215510 | 88 | 139 | 5.0 | 13.0 | 0.00 | 0.00 | 0.00 | 80 | 1012.9 |
| 20260502215011 | 89 | 150 | 7.0 | 14.0 | 0.00 | 0.00 | 0.00 | 79 | 1012.9 |
| 20260502214528 | 89 | 128 | 5.0 | 14.0 | 0.00 | 0.00 | 0.00 | 79 | 1012.9 |
| 20260502214016 | 89 | 124 | 6.0 | 15.0 | 0.00 | 0.00 | 0.00 | 78 | 1012.8 |
| 20260502213511 | 89 | 167 | 8.0 | 15.0 | 0.00 | 0.00 | 0.00 | 78 | 1012.8 |
| 20260502213030 | 90 | 136 | 7.0 | 14.0 | 0.00 | 0.00 | 0.00 | 77 | 1012.7 |
| 20260502212516 | 90 | 151 | 5.0 | 15.0 | 0.00 | 0.00 | 0.00 | 78 | 1012.7 |
| 20260502212011 | 90 | 178 | 7.0 | 15.0 | 0.00 | 0.00 | 0.00 | 78 | 1012.8 |
| 20260502211534 | 90 | 140 | 7.0 | 13.0 | 0.00 | 0.00 | 0.00 | 78 | 1012.8 |
| 20260502211010 | 90 | 217 | 6.0 | 15.0 | 0.00 | 0.00 | 0.00 | 78 | 1012.9 |
| 20260502210513 | 89 | 128 | 7.0 | 17.0 | 0.00 | 0.00 | 0.00 | 78 | 1012.9 |
| 20260502210028 | 89 | 161 | 6.0 | 17.0 | 0.00 | 0.00 | 0.00 | 77 | 1012.8 |
| 20260502205513 | 90 | 127 | 8.0 | 15.0 | 0.00 | 0.00 | 0.00 | 77 | 1012.8 |
| 20260502205009 | 90 | 143 | 6.0 | 14.0 | 0.00 | 0.00 | 0.00 | 76 | 1012.8 |
| 20260502204537 | 90 | 153 | 6.0 | 16.0 | 0.00 | 0.00 | 0.00 | 77 | 1012.7 |
| 20260502204008 | 90 | 132 | 8.0 | 16.0 | 0.00 | 0.00 | 0.00 | 77 | 1012.6 |
| 20260502203510 | 90 | 57 | 7.0 | 17.0 | 0.00 | 0.00 | 0.00 | 77 | 1012.7 |
| 20260502203055 | 90 | 110 | 8.0 | 17.0 | 0.00 | 0.00 | 0.00 | 77 | 1012.6 |
| 20260502202510 | 90 | 130 | 8.0 | 19.0 | 0.00 | 0.00 | 0.00 | 78 | 1012.5 |
| 20260502202010 | 90 | 123 | 8.0 | 19.0 | 0.00 | 0.00 | 0.00 | 77 | 1012.4 |
| 20260502201531 | 90 | 126 | 10.0 | 20.0 | 0.00 | 0.00 | 0.00 | 76 | 1012.4 |
| 20260502201009 | 90 | 138 | 9.0 | 20.0 | 0.00 | 0.00 | 0.00 | 76 | 1012.3 |
| 20260502200509 | 91 | 131 | 9.0 | 18.0 | 0.00 | 0.00 | 0.00 | 76 | 1012.4 |
| 20260502200030 | 91 | 115 | 9.0 | 16.0 | 0.00 | 0.00 | 0.00 | 75 | 1012.5 |
| 20260502195511 | 91 | 170 | 8.0 | 18.0 | 0.00 | 0.00 | 0.00 | 76 | 1012.4 |
| 20260502195010 | 91 | 119 | 12.0 | 20.0 | 0.00 | 0.00 | 0.00 | 74 | 1012.5 |
| 20260502194529 | 91 | 126 | 9.0 | 20.0 | 0.00 | 0.00 | 0.00 | 75 | 1012.5 |
| 20260502194009 | 90 | 135 | 10.0 | 19.0 | 0.00 | 0.00 | 0.00 | 75 | 1012.4 |
| 20260502193510 | 90 | 163 | 11.0 | 18.0 | 0.00 | 0.00 | 0.00 | 75 | 1012.5 |
| 20260502193054 | 91 | 116 | 8.0 | 17.0 | 0.00 | 0.00 | 0.00 | 76 | 1012.6 |
| 20260502192514 | 91 | 181 | 10.0 | 17.0 | 0.00 | 0.00 | 0.00 | 75 | 1012.5 |
| 20260502192013 | 91 | 121 | 8.0 | 16.0 | 0.00 | 0.00 | 0.00 | 74 | 1012.7 |
| 20260502191527 | 92 | 153 | 8.0 | 19.0 | 0.00 | 0.00 | 0.00 | 75 | 1012.8 |
| 20260502191010 | 92 | 138 | 10.0 | 19.0 | 0.00 | 0.00 | 0.00 | 75 | 1012.9 |
| 20260502190508 | 92 | 117 | 10.0 | 19.0 | 0.00 | 0.00 | 0.00 | 74 | 1012.9 |
| 20260502190031 | 92 | 141 | 9.0 | 18.0 | 0.00 | 0.00 | 0.00 | 74 | 1013.0 |
| 20260502185512 | 92 | 159 | 11.0 | 18.0 | 0.00 | 0.00 | 0.00 | 73 | 1013.1 |
| 20260502185010 | 92 | 153 | 6.0 | 16.0 | 0.00 | 0.00 | 0.00 | 74 | 1013.2 |
| 20260502184530 | 92 | 137 | 9.0 | 16.0 | 0.00 | 0.00 | 0.00 | 73 | 1013.3 |
| 20260502184009 | 92 | 159 | 8.0 | 16.0 | 0.00 | 0.00 | 0.00 | 73 | 1013.4 |
| 20260502183510 | 92 | 138 | 5.0 | 15.0 | 0.00 | 0.00 | 0.00 | 73 | 1013.5 |
| 20260502183030 | 92 | 123 | 8.0 | 15.0 | 0.00 | 0.00 | 0.00 | 75 | 1013.5 |
| 20260502182511 | 92 | 112 | 8.0 | 15.0 | 0.00 | 0.00 | 0.00 | 74 | 1013.5 |
| 20260502182012 | 92 | 150 | 8.0 | 17.0 | 0.00 | 0.00 | 0.00 | 74 | 1013.6 |
| 20260502181530 | 92 | 159 | 8.0 | 17.0 | 0.00 | 0.00 | 0.00 | 74 | 1013.6 |
| 20260502181009 | 92 | 132 | 7.0 | 18.0 | 0.00 | 0.00 | 0.00 | 74 | 1013.7 |
| 20260502180510 | 92 | 115 | 8.0 | 18.0 | 0.00 | 0.00 | 0.00 | 75 | 1013.7 |
| 20260502170514 | 91 | 141 | 8.0 | 15.0 | 0.00 | 0.00 | 0.00 | 75 | 1014.4 |
| 20260502164014 | 91 | 148 | 6.0 | 16.0 | 0.00 | 0.00 | 0.00 | 77 | 1014.5 |
| 20260502163511 | 91 | 132 | 9.0 | 16.0 | 0.00 | 0.00 | 0.00 | 77 | 1014.5 |
| 20260502163040 | 90 | 161 | 8.0 | 15.0 | 0.00 | 0.00 | 0.00 | 78 | 1014.5 |
| 20260502162549 | 90 | 132 | 7.0 | 17.0 | 0.00 | 0.00 | 0.00 | 79 | 1014.6 |
| 20260502162016 | 89 | 43 | 8.0 | 17.0 | 0.00 | 0.00 | 0.00 | 79 | 1014.4 |
| 20260502161539 | 89 | 86 | 8.0 | 17.0 | 0.00 | 0.00 | 0.00 | 80 | 1014.5 |
| 20260502161014 | 89 | 114 | 9.0 | 16.0 | 0.00 | 0.00 | 0.00 | 79 | 1014.5 |
| 20260502160513 | 90 | 139 | 8.0 | 14.0 | 0.00 | 0.00 | 0.00 | 78 | 1014.4 |
| 20260502152013 | 89 | 94 | 6.0 | 16.0 | 0.00 | 0.00 | 0.00 | 79 | 1014.9 |
| 20260502151530 | 89 | 119 | 8.0 | 16.0 | 0.00 | 0.00 | 0.00 | 79 | 1014.8 |
| 20260502151011 | 89 | 108 | 7.0 | 13.0 | 0.00 | 0.00 | 0.00 | 80 | 1014.8 |
| 20260502150511 | 89 | 140 | 8.0 | 13.0 | 0.00 | 0.00 | 0.00 | 80 | 1014.9 |
| 20260502130510 | 84 | 129 | 7.0 | 14.0 | 0.00 | 0.00 | 0.00 | 86 | 1014.2 |
| 20260502123513 | 83 | 82 | 5.0 | 12.0 | 0.00 | 0.00 | 0.00 | 88 | 1014.0 |
| 20260502123050 | 82 | 115 | 7.0 | 13.0 | 0.00 | 0.00 | 0.00 | 88 | 1014.1 |
| 20260502122510 | 82 | 129 | 6.0 | 13.0 | 0.00 | 0.00 | 0.00 | 89 | 1014.0 |
| 20260502122014 | 82 | 86 | 7.0 | 13.0 | 0.00 | 0.00 | 0.00 | 89 | 1013.8 |
| 20260502121530 | 82 | 108 | 6.0 | 13.0 | 0.00 | 0.00 | 0.00 | 90 | 1013.8 |
| 20260502121013 | 81 | 142 | 6.0 | 12.0 | 0.00 | 0.00 | 0.00 | 90 | 1013.8 |
| 20260502120516 | 81 | 112 | 6.0 | 12.0 | 0.00 | 0.00 | 0.00 | 90 | 1013.7 |
| 20260502115509 | 81 | 85 | 4.0 | 11.0 | 0.00 | 0.00 | 0.00 | 91 | 1013.7 |
| 20260502115011 | 80 | 83 | 5.0 | 10.0 | 0.00 | 0.00 | 0.00 | 92 | 1013.6 |
| 20260502114529 | 80 | 107 | 2.0 | 7.0 | 0.00 | 0.00 | 0.00 | 92 | 1013.6 |
| 20260502114011 | 80 | 84 | 3.0 | 8.0 | 0.00 | 0.00 | 0.00 | 92 | 1013.6 |
| 20260502113510 | 79 | 101 | 3.0 | 8.0 | 0.00 | 0.00 | 0.00 | 92 | 1013.6 |
| 20260502113031 | 79 | 71 | 3.0 | 7.0 | 0.00 | 0.00 | 0.00 | 93 | 1013.5 |
| 20260502112511 | 79 | 95 | 3.0 | 7.0 | 0.00 | 0.00 | 0.00 | 93 | 1013.4 |
| 20260502112010 | 79 | 107 | 2.0 | 7.0 | 0.00 | 0.00 | 0.00 | 93 | 1013.5 |
| 20260502111530 | 79 | 101 | 2.0 | 7.0 | 0.00 | 0.00 | 0.00 | 93 | 1013.5 |
| 20260502111012 | 79 | 101 | 2.0 | 7.0 | 0.00 | 0.00 | 0.00 | 93 | 1013.3 |
| 20260502110517 | 79 | 91 | 1.0 | 4.0 | 0.00 | 0.00 | 0.00 | 93 | 1013.4 |
| 20260502110032 | 79 | 91 | 2.0 | 4.0 | 0.00 | 0.00 | 0.00 | 93 | 1013.3 |
| 20260502105518 | 79 | 91 | 1.0 | 4.0 | 0.00 | 0.00 | 0.00 | 93 | 1013.4 |
| 20260502105013 | 79 | 91 | 1.0 | 4.0 | 0.00 | 0.00 | 0.00 | 93 | 1013.3 |
| 20260502104533 | 79 | 91 | 1.0 | 4.0 | 0.00 | 0.00 | 0.00 | 93 | 1013.4 |
| 20260502104012 | 79 | 91 | 2.0 | 5.0 | 0.00 | 0.00 | 0.00 | 93 | 1013.2 |
| 20260502103512 | 79 | 0 | 1.0 | 6.0 | 0.00 | 0.00 | 0.00 | 93 | 1013.2 |
| 20260502103030 | 79 | 91 | 2.0 | 7.0 | 0.00 | 0.00 | 0.00 | 93 | 1013.2 |
| 20260502102512 | 78 | 94 | 2.0 | 7.0 | 0.00 | 0.00 | 0.00 | 93 | 1013.1 |
| 20260502102013 | 78 | 105 | 2.0 | 6.0 | 0.00 | 0.00 | 0.00 | 93 | 1013.1 |
| 20260502101531 | 78 | 102 | 1.0 | 6.0 | 0.00 | 0.00 | 0.00 | 93 | 1013.0 |
| 20260502101012 | 79 | 83 | 1.0 | 4.0 | 0.00 | 0.00 | 0.00 | 93 | 1013.0 |
| 20260502100512 | 79 | 83 | 0.0 | 4.0 | 0.00 | 0.00 | 0.00 | 93 | 1012.9 |
| 20260502091532 | 79 | 87 | 1.0 | 3.0 | 0.00 | 0.00 | 0.00 | 93 | 1012.5 |
| 20260502091011 | 79 | 87 | 0.0 | 3.0 | 0.00 | 0.00 | 0.00 | 93 | 1012.6 |
| 20260502090512 | 79 | 0 | 0.0 | 3.0 | 0.00 | 0.00 | 0.00 | 93 | 1012.5 |
| 20260502071528 | 80 | 67 | 1.0 | 4.0 | 0.00 | 0.00 | 0.00 | 91 | 1012.7 |
| 20260502071009 | 80 | 88 | 1.0 | 6.0 | 0.00 | 0.00 | 0.00 | 91 | 1012.8 |
| 20260502070517 | 80 | 86 | 2.0 | 7.0 | 0.00 | 0.00 | 0.00 | 91 | 1012.9 |
| 20260502070031 | 80 | 90 | 3.0 | 7.0 | 0.00 | 0.00 | 0.00 | 91 | 1012.9 |
| 20260502065511 | 80 | 132 | 2.0 | 10.0 | 0.00 | 0.00 | 0.00 | 91 | 1012.9 |
| 20260502065013 | 80 | 74 | 2.0 | 10.0 | 0.00 | 0.00 | 0.00 | 91 | 1012.9 |
| 20260502064530 | 80 | 106 | 2.0 | 9.0 | 0.00 | 0.00 | 0.00 | 91 | 1012.9 |
| 20260502064010 | 80 | 117 | 1.0 | 7.0 | 0.00 | 0.00 | 0.00 | 91 | 1012.9 |
| 20260502063511 | 80 | 117 | 1.0 | 10.0 | 0.00 | 0.00 | 0.00 | 90 | 1013.0 |
| 20260502063033 | 80 | 95 | 3.0 | 10.0 | 0.00 | 0.00 | 0.00 | 90 | 1013.1 |
| 20260502062518 | 80 | 151 | 3.0 | 10.0 | 0.00 | 0.00 | 0.00 | 90 | 1013.1 |
| 20260502062012 | 80 | 105 | 5.0 | 10.0 | 0.00 | 0.00 | 0.00 | 90 | 1013.0 |
| 20260502061531 | 80 | 92 | 4.0 | 10.0 | 0.00 | 0.00 | 0.00 | 90 | 1013.1 |
| 20260502061009 | 80 | 134 | 3.0 | 9.0 | 0.00 | 0.00 | 0.00 | 90 | 1013.1 |
| 20260502060514 | 80 | 85 | 4.0 | 9.0 | 0.00 | 0.00 | 0.00 | 90 | 1013.1 |
| 20260502060033 | 81 | 103 | 4.0 | 8.0 | 0.00 | 0.00 | 0.00 | 90 | 1013.2 |
| 20260502055510 | 80 | 126 | 3.0 | 10.0 | 0.00 | 0.00 | 0.00 | 90 | 1013.2 |
| 20260502055010 | 81 | 57 | 3.0 | 10.0 | 0.00 | 0.00 | 0.00 | 89 | 1013.3 |
| 20260502054535 | 81 | 97 | 3.0 | 11.0 | 0.00 | 0.00 | 0.00 | 90 | 1013.4 |
| 20260502054011 | 81 | 121 | 4.0 | 11.0 | 0.00 | 0.00 | 0.00 | 90 | 1013.5 |
| 20260502053513 | 81 | 86 | 6.0 | 11.0 | 0.00 | 0.00 | 0.00 | 89 | 1013.5 |
| 20260502053032 | 81 | 132 | 3.0 | 10.0 | 0.00 | 0.00 | 0.00 | 89 | 1013.6 |
| 20260502052513 | 81 | 74 | 4.0 | 10.0 | 0.00 | 0.00 | 0.00 | 89 | 1013.6 |
| 20260502052011 | 81 | 59 | 4.0 | 10.0 | 0.00 | 0.00 | 0.00 | 89 | 1013.6 |
| 20260502051536 | 81 | 113 | 4.0 | 10.0 | 0.00 | 0.00 | 0.00 | 89 | 1013.8 |
| 20260502051010 | 81 | 95 | 3.0 | 10.0 | 0.00 | 0.00 | 0.00 | 89 | 1013.8 |
| 20260502050511 | 81 | 85 | 3.0 | 10.0 | 0.00 | 0.00 | 0.00 | 89 | 1013.9 |
| 20260502050040 | 81 | 82 | 5.0 | 11.0 | 0.00 | 0.00 | 0.00 | 89 | 1013.9 |
| 20260502045515 | 81 | 116 | 5.0 | 11.0 | 0.00 | 0.00 | 0.00 | 89 | 1014.0 |
| 20260502045013 | 81 | 114 | 4.0 | 10.0 | 0.00 | 0.00 | 0.00 | 89 | 1014.0 |
| 20260502044531 | 81 | 104 | 5.0 | 12.0 | 0.00 | 0.00 | 0.00 | 89 | 1014.0 |
| 20260502044012 | 81 | 123 | 6.0 | 12.0 | 0.00 | 0.00 | 0.00 | 89 | 1014.1 |
| 20260502043511 | 81 | 129 | 6.0 | 12.0 | 0.00 | 0.00 | 0.00 | 89 | 1014.1 |
| 20260502043034 | 81 | 112 | 7.0 | 12.0 | 0.00 | 0.00 | 0.00 | 89 | 1014.2 |
| 20260502042510 | 81 | 124 | 7.0 | 11.0 | 0.00 | 0.00 | 0.00 | 89 | 1014.3 |
| 20260502042011 | 81 | 94 | 4.0 | 9.0 | 0.00 | 0.00 | 0.00 | 89 | 1014.2 |
| 20260502041529 | 81 | 107 | 4.0 | 9.0 | 0.00 | 0.00 | 0.00 | 89 | 1014.3 |
| 20260502041011 | 81 | 121 | 5.0 | 9.0 | 0.00 | 0.00 | 0.00 | 89 | 1014.2 |
| 20260502040511 | 81 | 86 | 1.0 | 9.0 | 0.00 | 0.00 | 0.00 | 88 | 1014.2 |
| 20260502040028 | 81 | 88 | 4.0 | 9.0 | 0.00 | 0.00 | 0.00 | 88 | 1014.3 |
| 20260502035510 | 81 | 88 | 3.0 | 10.0 | 0.00 | 0.00 | 0.00 | 88 | 1014.2 |
| 20260502035010 | 81 | 90 | 3.0 | 10.0 | 0.00 | 0.00 | 0.00 | 88 | 1014.2 |
| 20260502034528 | 81 | 156 | 3.0 | 10.0 | 0.00 | 0.00 | 0.00 | 88 | 1014.2 |
| 20260502034013 | 81 | 81 | 3.0 | 9.0 | 0.00 | 0.00 | 0.00 | 88 | 1014.2 |
| 20260502033511 | 81 | 90 | 3.0 | 10.0 | 0.00 | 0.00 | 0.00 | 88 | 1014.1 |
| 20260502033031 | 81 | 114 | 4.0 | 11.0 | 0.00 | 0.00 | 0.00 | 88 | 1014.2 |
| 20260502032511 | 81 | 129 | 5.0 | 11.0 | 0.00 | 0.00 | 0.00 | 88 | 1014.1 |
| 20260502032010 | 81 | 90 | 5.0 | 8.0 | 0.00 | 0.00 | 0.00 | 88 | 1014.0 |
| 20260502031530 | 81 | 71 | 3.0 | 10.0 | 0.00 | 0.00 | 0.00 | 88 | 1014.1 |
| 20260502031011 | 81 | 123 | 3.0 | 10.0 | 0.00 | 0.00 | 0.00 | 88 | 1014.0 |
| 20260502030510 | 81 | 96 | 2.0 | 7.0 | 0.00 | 0.00 | 0.00 | 88 | 1014.0 |
| 20260502030032 | 81 | 130 | 2.0 | 9.0 | 0.00 | 0.00 | 0.00 | 88 | 1013.9 |
| 20260502025519 | 81 | 99 | 3.0 | 11.0 | 0.00 | 0.00 | 0.00 | 87 | 1013.9 |
| 20260502025009 | 81 | 113 | 3.0 | 11.0 | 0.00 | 0.00 | 0.00 | 87 | 1013.8 |
| 20260502024534 | 81 | 94 | 3.0 | 9.0 | 0.00 | 0.00 | 0.00 | 87 | 1013.7 |
| 20260502024011 | 81 | 87 | 5.0 | 9.0 | 0.00 | 0.00 | 0.00 | 87 | 1013.7 |
| 20260502023510 | 81 | 85 | 4.0 | 8.0 | 0.00 | 0.00 | 0.00 | 87 | 1013.7 |
| 20260502023031 | 81 | 94 | 3.0 | 10.0 | 0.00 | 0.00 | 0.00 | 87 | 1013.6 |
| 20260502022511 | 81 | 81 | 4.0 | 10.0 | 0.00 | 0.00 | 0.00 | 87 | 1013.5 |
| 20260502022015 | 81 | 82 | 4.0 | 10.0 | 0.00 | 0.00 | 0.00 | 87 | 1013.4 |
| 20260502021531 | 81 | 98 | 3.0 | 10.0 | 0.00 | 0.00 | 0.00 | 87 | 1013.3 |
| 20260502021010 | 81 | 81 | 4.0 | 10.0 | 0.00 | 0.00 | 0.00 | 87 | 1013.2 |
| 20260502020509 | 81 | 146 | 4.0 | 10.0 | 0.00 | 0.00 | 0.00 | 86 | 1013.2 |
| 20260502020030 | 81 | 117 | 5.0 | 10.0 | 0.00 | 0.00 | 0.00 | 86 | 1013.1 |
| 20260502015511 | 81 | 103 | 6.0 | 10.0 | 0.00 | 0.00 | 0.00 | 86 | 1013.1 |
| 20260502015012 | 81 | 92 | 5.0 | 14.0 | 0.00 | 0.00 | 0.00 | 86 | 1013.1 |
| 20260502014535 | 81 | 111 | 4.0 | 14.0 | 0.00 | 0.00 | 0.00 | 86 | 1013.1 |
| 20260502014014 | 81 | 92 | 5.0 | 14.0 | 0.00 | 0.00 | 0.00 | 85 | 1013.0 |
| 20260502013512 | 81 | 99 | 4.0 | 10.0 | 0.00 | 0.00 | 0.00 | 85 | 1013.1 |
| 20260502013030 | 81 | 94 | 5.0 | 11.0 | 0.00 | 0.00 | 0.00 | 85 | 1013.1 |
| 20260502012508 | 81 | 111 | 4.0 | 11.0 | 0.00 | 0.00 | 0.00 | 85 | 1013.0 |
| 20260502012013 | 81 | 74 | 5.0 | 11.0 | 0.00 | 0.00 | 0.00 | 85 | 1012.9 |
| 20260502011529 | 81 | 87 | 4.0 | 11.0 | 0.00 | 0.00 | 0.00 | 85 | 1012.8 |
| 20260502011011 | 81 | 121 | 5.0 | 10.0 | 0.00 | 0.00 | 0.00 | 85 | 1012.8 |
| 20260502010513 | 81 | 81 | 4.0 | 10.0 | 0.00 | 0.00 | 0.00 | 85 | 1012.8 |
| 20260502010031 | 81 | 111 | 4.0 | 12.0 | 0.00 | 0.00 | 0.00 | 84 | 1012.7 |
| 20260502005510 | 81 | 85 | 5.0 | 12.0 | 0.00 | 0.00 | 0.00 | 84 | 1012.7 |
| 20260502005012 | 81 | 119 | 4.0 | 12.0 | 0.00 | 0.00 | 0.00 | 84 | 1012.6 |
| 20260502004528 | 81 | 103 | 5.0 | 12.0 | 0.00 | 0.00 | 0.00 | 84 | 1012.5 |
| 20260502004021 | 82 | 109 | 5.0 | 12.0 | 0.00 | 0.00 | 0.00 | 84 | 1012.4 |